Weather History for KTVK - April, 2014

Change the Weather History Date:

Friday, April 4, 2014

  Actual Average Record
Temperature  
Mean Temperature 39 °F -  
Max Temperature 46 °F 55 °F 80 °F (1988)
Min Temperature 32 °F 35 °F 18 °F (1975)
Degree Days  
Heating Degree Days 26    
Moisture  
Dew Point 32 °F    
Average Humidity 85    
Maximum Humidity 100    
Minimum Humidity 61    
Precipitation  
Precipitation 0.00 in - - ()
Sea Level Pressure  
Sea Level Pressure 29.89 in    
Wind  
Wind Speed 19 mph (WNW)    
Max Wind Speed 30 mph    
Max Gust Speed 39 mph    
Visibility 10 miles    
Events Rain    
Averages and records for this station are not official NWS values.
T = Trace of Precipitation, MM = Missing Value Source: NWS Daily Summary

Daily Weather History Graph

Daily Weather History Graph

Search for Another Location

Airport or City:

Trip Planner

Search our weather history database for the weather conditions in past years. The results will help you decide how hot, cold, wet, or windy it might be!

Date:

Astronomy

Apr. 04, 2014 Rise Set
Actual Time 6:50 AM CDT 7:39 PM CDT
Civil Twilight 6:22 AM CDT 8:07 PM CDT
Nautical Twilight 5:49 AM CDT 8:40 PM CDT
Astronomical Twilight 5:15 AM CDT 9:14 PM CDT
Moon 10:06 AM CDT (4/4) No Moon Set
Length of Visible Light 13h 44m
Length of Day
12h 49m
Waxing Crescent, 25% of the Moon is Illuminated
Apr 4
Waxing Crescent
Apr 7
First Quarter
Apr 15
Full
Apr 22
Last Quarter
Apr 29
New

Hourly Weather History & Observations

Time (CDT) Temp. Windchill Dew Point Humidity Pressure Visibility Wind Dir Wind Speed Gust Speed Precip Events Conditions
12:15 AM 46.4 °F 41.1 °F 46.4 °F 100% 29.57 in 3.0 mi WSW 11.5 mph - N/A Rain Light Rain
12:35 AM 44.6 °F 38.1 °F 44.6 °F 100% 29.58 in 5.0 mi WSW 13.8 mph - N/A Rain Light Rain
12:55 AM 44.6 °F 38.1 °F 44.6 °F 100% 29.59 in 5.0 mi WSW 13.8 mph - N/A Rain Light Rain
1:15 AM 44.6 °F 37.8 °F 44.6 °F 100% 29.59 in 10.0 mi WSW 15.0 mph 23.0 mph N/A   Unknown
1:35 AM 42.8 °F 34.3 °F 42.8 °F 100% 29.59 in 9.0 mi WSW 19.6 mph 28.8 mph N/A Rain Light Rain
1:55 AM 39.2 °F 29.3 °F 39.2 °F 100% 29.61 in 10.0 mi WSW 20.7 mph - N/A Rain Light Rain
2:15 AM 37.4 °F 26.4 °F 37.4 °F 100% 29.61 in 10.0 mi West 23.0 mph 32.2 mph N/A   Unknown
2:35 AM 35.6 °F 24.5 °F 35.6 °F 100% 29.62 in 10.0 mi West 20.7 mph 31.1 mph N/A   Unknown
2:55 AM 35.6 °F 24.8 °F 35.6 °F 100% 29.62 in 10.0 mi West 19.6 mph - N/A   Unknown
3:15 AM 35.6 °F 24.0 °F 35.6 °F 100% 29.62 in 10.0 mi West 23.0 mph 33.4 mph N/A   Unknown
3:35 AM 33.8 °F 21.0 °F 33.8 °F 100% 29.63 in 10.0 mi WNW 25.3 mph 31.1 mph N/A   Unknown
3:55 AM 33.8 °F 20.5 °F 33.8 °F 100% 29.64 in 10.0 mi WNW 27.6 mph 34.5 mph N/A   Unknown
4:15 AM 33.8 °F 21.3 °F 33.8 °F 100% 29.65 in 10.0 mi West 24.2 mph 28.8 mph N/A   Unknown
4:35 AM 32.0 °F 19.2 °F 32.0 °F 100% 29.67 in 10.0 mi West 23.0 mph 33.4 mph N/A   Overcast
4:55 AM 32.0 °F 18.1 °F 32.0 °F 100% 29.68 in 10.0 mi WNW 27.6 mph 32.2 mph N/A   Overcast
5:15 AM 32.0 °F 18.4 °F 32.0 °F 100% 29.69 in 10.0 mi WNW 26.5 mph 32.2 mph N/A   Overcast
5:35 AM 32.0 °F 20.5 °F 32.0 °F 100% 29.71 in 10.0 mi WNW 18.4 mph 32.2 mph N/A   Overcast
5:55 AM 32.0 °F 19.8 °F 32.0 °F 100% 29.72 in 10.0 mi West 20.7 mph 29.9 mph N/A   Overcast
6:15 AM 32.0 °F 19.8 °F 32.0 °F 100% 29.74 in 10.0 mi WNW 20.7 mph 28.8 mph N/A   Overcast
6:35 AM 32.0 °F 18.1 °F 32.0 °F 100% 29.75 in 10.0 mi WNW 27.6 mph 32.2 mph N/A   Overcast
6:55 AM 32.0 °F 18.9 °F 32.0 °F 100% 29.77 in 10.0 mi WNW 24.2 mph 32.2 mph N/A   Overcast
7:15 AM 32.0 °F 19.2 °F 32.0 °F 100% 29.78 in 10.0 mi WNW 23.0 mph 36.8 mph N/A   Overcast
7:35 AM 32.0 °F 18.1 °F 30.2 °F 93% 29.79 in 10.0 mi WNW 27.6 mph 34.5 mph N/A   Overcast
7:55 AM 32.0 °F 19.2 °F 30.2 °F 93% 29.81 in 10.0 mi WNW 23.0 mph 33.4 mph N/A   Overcast
8:15 AM 32.0 °F 18.4 °F 28.4 °F 87% 29.82 in 10.0 mi WNW 26.5 mph 32.2 mph N/A   Overcast
8:35 AM 32.0 °F 18.1 °F 28.4 °F 87% 29.83 in 10.0 mi WNW 27.6 mph 35.7 mph N/A   Overcast
8:55 AM 32.0 °F 18.6 °F 28.4 °F 87% 29.84 in 10.0 mi WNW 25.3 mph 35.7 mph N/A   Overcast
9:15 AM 32.0 °F 19.8 °F 28.4 °F 87% 29.85 in 10.0 mi WNW 20.7 mph 33.4 mph N/A   Overcast
9:35 AM 32.0 °F 19.5 °F 30.2 °F 93% 29.86 in 10.0 mi WNW 21.9 mph 29.9 mph N/A   Overcast
9:55 AM 33.8 °F 21.0 °F 30.2 °F 87% 29.87 in 10.0 mi WNW 25.3 mph 39.1 mph N/A   Overcast
10:15 AM 35.6 °F 24.0 °F 30.2 °F 81% 29.89 in 10.0 mi WNW 23.0 mph 33.4 mph N/A   Overcast
10:35 AM 35.6 °F 23.4 °F 30.2 °F 81% 29.89 in 10.0 mi NW 25.3 mph 34.5 mph N/A   Overcast
10:55 AM 35.6 °F 24.2 °F 32.0 °F 87% 29.90 in 10.0 mi WNW 21.9 mph 29.9 mph N/A   Overcast
11:15 AM 35.6 °F 23.0 °F 30.2 °F 81% 29.91 in 10.0 mi WNW 27.6 mph 34.5 mph N/A   Mostly Cloudy
11:35 AM 35.6 °F 23.2 °F 32.0 °F 87% 29.93 in 10.0 mi WNW 26.5 mph 35.7 mph N/A   Mostly Cloudy
11:55 AM 35.6 °F 23.4 °F 32.0 °F 87% 29.94 in 10.0 mi WNW 25.3 mph 29.9 mph N/A   Mostly Cloudy
12:15 PM 35.6 °F 23.0 °F 32.0 °F 87% 29.94 in 10.0 mi WNW 27.6 mph 35.7 mph N/A   Mostly Cloudy
12:35 PM 37.4 °F 25.0 °F 32.0 °F 81% 29.95 in 10.0 mi WNW 29.9 mph 34.5 mph N/A   Mostly Cloudy
1:15 PM 37.4 °F 25.9 °F 32.0 °F 81% 29.97 in 10.0 mi WNW 25.3 mph 34.5 mph N/A   Mostly Cloudy
1:35 PM 37.4 °F 26.6 °F 32.0 °F 81% 29.97 in 10.0 mi WNW 21.9 mph 31.1 mph N/A   Mostly Cloudy
1:55 PM 37.4 °F 26.1 °F 32.0 °F 81% 29.97 in 10.0 mi WNW 24.2 mph 32.2 mph N/A   Mostly Cloudy
2:15 PM 37.4 °F 26.9 °F 32.0 °F 81% 29.98 in 10.0 mi WNW 20.7 mph 31.1 mph N/A   Mostly Cloudy
2:35 PM 39.2 °F 28.0 °F 32.0 °F 75% 29.98 in 10.0 mi WNW 26.5 mph 29.9 mph N/A   Scattered Clouds
2:55 PM 39.2 °F 29.6 °F 32.0 °F 75% 29.99 in 10.0 mi West 19.6 mph 26.5 mph N/A   Partly Cloudy
3:15 PM 39.2 °F 28.5 °F 32.0 °F 75% 29.99 in 10.0 mi West 24.2 mph 28.8 mph N/A   Partly Cloudy
3:55 PM 41.0 °F 31.4 °F 32.0 °F 70% 30.00 in 10.0 mi NW 21.9 mph 28.8 mph N/A   Scattered Clouds
4:15 PM 39.2 °F 29.0 °F 32.0 °F 75% 30.00 in 10.0 mi WNW 21.9 mph 27.6 mph N/A   Mostly Cloudy
4:35 PM 41.0 °F 31.9 °F 30.2 °F 65% 30.01 in 10.0 mi WNW 19.6 mph 28.8 mph N/A   Mostly Cloudy
4:55 PM 41.0 °F 32.8 °F 30.2 °F 65% 30.01 in 10.0 mi NW 16.1 mph 25.3 mph N/A   Mostly Cloudy
5:15 PM 41.0 °F 33.1 °F 32.0 °F 70% 30.02 in 10.0 mi WNW 15.0 mph 21.9 mph N/A   Mostly Cloudy
5:35 PM 41.0 °F 32.8 °F 30.2 °F 65% 30.03 in 10.0 mi WNW 16.1 mph - N/A   Overcast
5:55 PM 41.0 °F 31.4 °F 30.2 °F 65% 30.03 in 10.0 mi WNW 21.9 mph - N/A   Mostly Cloudy
6:15 PM 41.0 °F 31.6 °F 28.4 °F 61% 30.04 in 10.0 mi WNW 20.7 mph 25.3 mph N/A   Overcast
6:35 PM 39.2 °F 30.2 °F 28.4 °F 65% 30.05 in 10.0 mi WNW 17.3 mph 21.9 mph N/A   Overcast
6:55 PM 39.2 °F 30.5 °F 28.4 °F 65% 30.06 in 10.0 mi NW 16.1 mph - N/A   Overcast
7:15 PM 39.2 °F 31.2 °F 28.4 °F 65% 30.07 in 10.0 mi NW 13.8 mph - N/A   Overcast
7:35 PM 39.2 °F 32.0 °F 28.4 °F 65% 30.07 in 10.0 mi NW 11.5 mph - N/A   Overcast
7:55 PM 39.2 °F 33.0 °F 28.4 °F 65% 30.08 in 10.0 mi NW 9.2 mph - N/A   Overcast
8:15 PM 39.2 °F 33.6 °F 28.4 °F 65% 30.09 in 10.0 mi NW 8.1 mph - N/A   Overcast
8:35 PM 37.4 °F 31.4 °F 30.2 °F 75% 30.10 in 10.0 mi NW 8.1 mph - N/A   Overcast
8:55 PM 35.6 °F 29.9 °F 28.4 °F 75% 30.11 in 10.0 mi NW 6.9 mph - N/A   Mostly Cloudy
9:15 PM 35.6 °F 30.7 °F 30.2 °F 81% 30.12 in 10.0 mi WNW 5.8 mph - N/A   Mostly Cloudy
9:35 PM 35.6 °F 29.9 °F 32.0 °F 87% 30.13 in 10.0 mi WNW 6.9 mph - N/A   Overcast
9:55 PM 37.4 °F 30.8 °F 30.2 °F 75% 30.14 in 10.0 mi NW 9.2 mph - N/A   Overcast
10:10 PM 37.4 °F 31.4 °F 30.2 °F 75% 30.14 in 10.0 mi NW 8.1 mph - N/A   Overcast
10:35 PM 37.4 °F 32.1 °F 30.2 °F 75% 30.14 in 10.0 mi WNW 6.9 mph - N/A   Overcast
10:55 PM 37.4 °F 32.8 °F 32.0 °F 81% 30.15 in 10.0 mi WNW 5.8 mph - N/A   Overcast
11:15 PM 35.6 °F 31.7 °F 32.0 °F 87% 30.15 in 10.0 mi WNW 4.6 mph - N/A   Overcast
11:35 PM 35.6 °F 30.7 °F 32.0 °F 87% 30.16 in 10.0 mi WNW 5.8 mph - N/A   Mostly Cloudy
11:55 PM 35.6 °F 31.7 °F 32.0 °F 87% 30.16 in 10.0 mi WNW 4.6 mph - N/A   Mostly Cloudy